{"data":{"norad_id":66704,"epoch":"2026-05-25T03:29:55.841280Z","epoch_age_seconds":63211,"freshness":"FRESH","line1":"1 66704U 25276AQ  26145.14578520  .00004944  00000+0  23099-3 0  9991","line2":"2 66704  97.4182 219.1999 0003215  66.3228 293.8344 15.20254492 26931","mean_motion":15.20254492,"eccentricity":0.0003215,"inclination_deg":97.4182,"raan_deg":219.1999,"arg_perigee_deg":66.3228,"mean_anomaly_deg":293.8344,"bstar":0.00023099,"rev_number":2693,"period_min":94.720983070774,"perigee_km":502.8593843823,"apogee_km":507.28528798546,"semimajor_km":6883.2093361839,"source":"CELESTRAK","updated_at":"2026-05-25T13:38:13.345069Z"}}